EDT,Max TemperatureF,Mean TemperatureF,Min TemperatureF,Max Dew PointF,MeanDew PointF,Min DewpointF,Max Humidity, Mean Humidity, Min Humidity, Max Sea Level PressureIn, Mean Sea Level PressureIn, Min Sea Level PressureIn, Max VisibilityMiles, Mean VisibilityMiles, Min VisibilityMiles, Max Wind SpeedMPH, Mean Wind SpeedMPH, Max Gust SpeedMPH,PrecipitationIn, CloudCover, Events, WindDirDegrees
2013-3-1,32,28,24,32,28,25,100,97,93,29.91,29.84,29.74,10,10,5,10,8,16,0.00,,,318
2013-3-2,26,24,23,25,22,21,100,92,80,29.90,29.87,29.84,10,9,4,10,6,16,0.00,,,316
2013-3-3,26,24,21,25,22,18,100,94,80,29.94,29.88,29.84,10,6,1,13,8,20,0.00,,,302
2013-3-4,32,26,19,21,20,18,100,84,60,30.04,30.00,29.94,10,8,2,15,8,22,0.00,,,295
2013-3-5,42,27,12,27,19,10,100,73,27,30.05,29.92,29.71,10,10,10,16,3,24,0.00,,,95
2013-3-6,42,36,30,32,29,27,100,80,57,30.07,29.90,29.70,10,8,1,17,6,25,0.19,,,64
2013-3-7,37,34,30,36,31,27,100,89,70,30.23,30.15,30.07,10,9,0,14,3,23,0.05,,,319
2013-3-8,42,34,26,30,28,25,100,81,53,30.36,30.30,30.22,10,10,7,15,7,21,0.00,,,333
2013-3-9,53,37,21,30,25,19,100,69,30,30.37,30.29,30.20,10,10,7,12,1,,0.00,,,139
2013-3-10,62,53,44,30,26,19,41,35,29,30.20,30.12,30.03,10,10,10,14,9,20,0.00,,,170
2013-3-11,57,54,51,52,33,27,100,47,33,30.05,29.90,29.75,10,10,4,23,10,34,0.06,,,166
2013-3-12,51,43,35,52,37,28,100,93,75,29.96,29.86,29.76,10,8,2,17,9,24,0.51,,,272
2013-3-13,35,30,24,34,28,21,100,91,70,30.04,29.94,29.89,10,8,1,21,10,32,0.00,,,278
2013-3-14,35,29,23,25,20,16,100,77,48,30.13,30.09,30.03,10,8,2,17,12,26,0.00,,,293
2013-3-15,44,32,21,37,27,18,100,77,57,30.08,29.91,29.79,10,10,5,22,5,30,0.01,,,274
2013-3-16,35,34,32,36,33,32,100,100,100,29.93,29.76,29.63,10,6,1,10,2,,0.12,,,82
2013-3-17,33,30,26,32,26,23,100,86,70,30.19,30.10,29.93,10,10,10,10,2,20,0.00,,,359
2013-3-18,33,30,28,34,27,21,100,87,69,30.17,29.96,29.71,10,9,2,24,12,37,0.09,,,137
2013-3-19,42,34,26,37,28,18,100,80,36,29.92,29.78,29.69,10,8,2,32,12,46,0.11,,,269
2013-3-20,35,30,24,23,19,18,80,66,48,29.92,29.86,29.78,10,10,5,21,13,30,0.00,,,290
2013-3-21,26,20,15,25,16,10,100,79,59,29.84,29.80,29.77,10,8,1,16,6,22,0.00,,,289
2013-3-22,28,26,23,27,23,21,100,87,74,29.98,29.89,29.81,10,8,2,18,12,26,0.00,,,285
2013-3-23,41,32,24,25,24,21,100,77,53,30.02,29.98,29.94,10,10,10,14,2,21,0.00,,,328
2013-3-24,39,29,19,25,22,19,100,72,49,29.99,29.78,29.55,10,10,10,13,4,21,0.00,,,107
2013-3-25,35,32,30,34,31,23,100,97,60,29.70,29.54,29.47,10,4,1,17,7,26,0.24,,,125
2013-3-26,41,34,26,36,31,27,100,94,65,30.02,29.87,29.71,10,9,1,13,3,23,0.06,,,296
2013-3-27,39,34,30,34,31,27,100,90,61,30.12,30.06,30.01,10,10,3,15,7,22,0.00,,,294
2013-3-28,39,36,32,36,33,32,100,94,75,30.24,30.15,30.07,10,8,2,10,6,17,0.02,,,307
2013-3-29,48,40,32,36,31,23,100,74,40,30.24,30.20,30.14,10,10,10,12,2,18,0.00,,,293
2013-3-30,51,37,23,30,25,21,100,66,30,30.23,30.16,30.05,10,10,10,7,1,20,0.00,,,247
2013-3-31,48,40,32,46,36,21,100,76,39,30.04,29.83,29.71,10,10,5,12,6,18,0.16,,,200